sat.trackr.live / text

‹ back to catalog

STARLINK-4135

NORAD 53248 · 2022-086G

PAYLOAD ACTIVE UNKNOWN

§ Identity

Operator
Country
US
Launch date
2022-07-24
Launch site
AFETR
Launch vehicle
Mass (kg)
RCS (m²)

Purposes: comms

External: N2YO · Heavens-Above · Gunter

§ Orbital elements

Epoch: 2026-09-20T02:12:06.687648Z

Period
94.01 min
Inclination
53.1612°
Eccentricity
0.0001115
Mean motion
15.31699304 rev/d
Perigee alt
470.0 km
Apogee alt
471.5 km
Semi-major
6,848.9 km
B*
2.3058e-5
RAAN
35.7367°
Arg perigee
85.9656°
Mean anomaly
274.1473°
Rev number
23,080

§ Raw data

STARLINK-41351 53248U 22086G   26263.09174407  .00000351  00000+0  23058-4 0  99912 53248  53.1612  35.7367 0001115  85.9656 274.1473 15.31699304230802

JSON: /api/v1/satellites/53248 · /tle

For live sub-satellite position, see the globe view (requires WebGL).

§ Visibility from observer

Set your observer location to see the next 7 days of passes ≥ 10°. The values pass through the URL so the page stays shareable.

No JS? Fill the form by hand. The geolocation button needs JavaScript.